Regional Weather Roundup
Issued by NWS

Home | Current Version | Previous Version | Text Only | Print | Product List | Glossary On
Versions: 1 2 3 4 5 6 7 8 9 10 11 12 13 14 15 16 17 18 19 20 21 22 23 24 25 26 27
000
ASUS45 KCYS 211410
RWRWY

WYOMING REGIONAL WEATHER ROUNDUP
NATIONAL WEATHER SERVICE CHEYENNE WY
700 AM MST SAT JAN 21 2017

NOTE:  "FAIR" INDICATES FEW OR NO CLOUDS BELOW 12,000 FEET
WITH NO SIGNIFICANT WEATHER AND/OR OBSTRUCTIONS TO VISIBILITY.

WYZ001-211500-
YELLOWSTONE NATIONAL PARK

CITY           SKY/WX    TMP DP  RH WIND       PRES   REMARKS
LK YELLOWSTONE   N/A      8   6  92 CALM      29.33R
W YELLOWSTONE  NOT AVBL

$$
WYZ002>013-054>058-071-098>099-211500-
NORTHERN WYOMING

CITY           SKY/WX    TMP DP  RH WIND       PRES   REMARKS
JACKSON        PTCLDY    16  14  93 CALM      29.35R
CODY           FAIR      17  10  74 CALM      29.33S
GREYBULL       FOG        5   3  91 SE5       29.38S VSB 1/4 WCI  -4
WORLAND        FOG        4   4 100 CALM      29.37S VSB 1/4
SHERIDAN       FAIR      11   8  88 MISG      29.34S
BUFFALO        FAIR      25  15  66 W8        29.33S WCI  16
GILLETTE       FAIR      15  12  88 CALM      29.34S
HULETT           N/A     27  25  93 CALM      29.36S FOG
NEWCASTLE      FAIR      23  23 100 CALM      29.36R

$$
WYZ014>020-022>026-101>103-211500-
CENTRAL WYOMING

CITY           SKY/WX    TMP DP  RH WIND       PRES   REMARKS
BIG PINEY      CLOUDY     7   4  87 SW5       29.35R WCI  -2
PINEDALE       CLOUDY    12  10  92 NW5       29.33S WCI   4
DUBOIS         NOT AVBL
LANDER         FAIR       9   8  96 S3        29.34R
RIVERTON       FOG        8   5  87 W6        29.36R VSB 1/2 WCI  -2
CASPER         FAIR      19  15  84 SW8       29.33S WCI   9
DOUGLAS        FAIR      11   8  88 SE6       29.36R WCI   1

$$
WYZ021-027>030-104>119-211500-
SOUTHERN WYOMING

CITY           SKY/WX    TMP DP  RH WIND       PRES   REMARKS
EVANSTON       LGT SNOW  17  12  80 E5        29.29R VSB 1   WCI  10
ROCK SPRINGS   FAIR      14  11  87 NE7       29.31R WCI   4
RAWLINS        FAIR       7   3  84 CALM      29.33S
LARAMIE        CLOUDY     8   4  83 SW6       29.34R WCI  -2
CHEYENNE       FAIR      18  12  77 W7        29.35S WCI   9
TORRINGTON     FAIR      18  14  84 CALM      29.38R

$$




USA.gov is the U.S. government's official web portal to all federal, state and local government web resources and services.